Location: Winthrop
(48.4780°N, 120.1850°W)
Time: 04:21:53
(UTC-07:00)

deb Explorer IX - Pass Details

Date: 13 February 2023
Orbit: 536 x 1029 km, 38.8° (Epoch: 27 March)

Event Time Altitude Azimuth Distance (km) Brightness Sun altitude
Rises 00:00:39 0° 228° (SW) 3,500 - -54.8°
Reaches altitude 10° 00:03:53 10° 214° (SW) 2,468 - -54.8°
Maximum altitude 00:08:16 22° 165° (SSE) 1,642 - -54.9°
Drops below altitude 10° 00:12:13 10° 115° (ESE) 2,203 - -54.9°
Sets 00:14:55 0° 100° (E) 3,033 - -54.9°
